ARIANE 42P DEB *, 47108

Orbit data source: Space-Track

ARIANE 42P DEB *, 47108 is space debris in LEO originally from a launch on Mon, 10 Aug 1992 UTC launched from the French Guiana (FRGUI). Debris objects in space refer to the collection of defunct objects orbiting the Earth. Examples of debris include non-operational satellites, rocket bodies, and fragments generated from explosions, collisions, or faulty payload assembly.

Loading next visibility...
Identifier
47108, 1992-052P
Orbit
LEO
Country
Flag of FRFR
Related business
Manufacturer
ArianeGroup
Mission
Spacecraft
Bus & Motor
Unknown
Mass
Unknown
Launch date (UTC)
1992-08-10 (33 years ago)
Launch vehicle
Unknown
Launch site
French Guiana (FRGUI)
Object type
Payload
Rocket body
Debris
Shape & HBR
Unknown shape, 0.1 m
Radar Cross Section
Small (<0.1 m²)

Expand to show TLE details & history
Last TLE update: 1 day ago

TLE from 1 day ago
0 ARIANE 42P DEB *
1 47108U 92052P   25305.73449006  .00001090  00000-0  60225-3 0  9994
2 47108  65.8123 113.4965 1170345  19.1658 344.9785 12.43891549 70910
Epoch: 2025-11-01T17:37Z
TLE epoch observation values (Epoch: 2025-11-01T17:37:39.941Z)
Latitude
-0.00007°
Longitude
167.81973°
Altitude
611.199 km
Speed
7.965 km/s
True Right ascension
07h 33m 59s
True Declination
0° 00' 00"
Sunlit
Object was in daylight at epoch
Visualization orbit readout
Latitude
Unknown
Longitude
Unknown
Altitude
Unknown
Speed
Unknown
Apparent Right ascension
Unknown
Apparent Declination
Unknown
Sunlit
N/A
Visualization observer readout
Local Sidereal Time
22:33:58
Azimuth
Unknown
Elevation
Unknown
Doppler factor
Unknown
Orbital elements
Apogee altitude
2,409.432 km
Perigee altitude
568.041 km
Semi-major axis
7,866.873 km
Eccentricity
0.11703
Inclination
65.8123°
RAAN
113.4965°
Arg. of periapsis
19.1658°
True anomaly
340.93854°
Mean anomaly
344.9785°
Eccentric anomaly
343.02024°
Mean motion
3.11057 °/min
Orbital period
115.73 mins
BSTAR
0.00060225
Loading maneuver chart data...
Computing Atmospheric mass density...
Loading historical data...
Loading historical data...
Loading historical data...
Loading historical data...
Loading historical data...
Loading historical data...
Loading historical data...

Documentation

Showing up to 5 results
|